Location: Ellerstadt
(49.4644°N, 8.2615°E)
Time: 01:24:05
(UTC+00:00)

ISS - Pass Details

Date: 22 May 2021
Orbit: 417 x 422 km, 51.6° (Epoch: 15 June)

Event Time Altitude Azimuth Distance (km) Brightness Sun altitude
Rises 22:33:05 0° 289° (WNW) 2,371 0.5 -19.1°
Reaches altitude 10° 22:35:12 10° 286° (WNW) 1,505 -0.6 -19.1°
Enters shadow 22:38:11 57° 241° (WSW) 501 -3.6 -19.2°
